| time (UTC) | temp F | wind direction | speed MPH | gust MPH | rain 1hr in | rain 24hr in | rain mn in | humidity % | barometer mb |
| 20260506154550 | 54 | 236 | 1.0 | 3.0 | 0.01 | 0.38 | 0.31 | 96 | 1005.3 |
| 20260506153106 | 54 | 249 | 2.0 | 4.0 | 0.02 | 0.38 | 0.31 | 96 | 1005.4 |
| 20260506151545 | 54 | 178 | 1.0 | 4.0 | 0.02 | 0.38 | 0.31 | 96 | 1005.3 |
| 20260506150058 | 54 | 221 | 1.0 | 4.0 | 0.03 | 0.38 | 0.31 | 96 | 1005.4 |
| 20260506144554 | 54 | 212 | 1.0 | 3.0 | 0.03 | 0.37 | 0.30 | 96 | 1005.2 |
| 20260506143048 | 54 | 205 | 1.0 | 3.0 | 0.03 | 0.36 | 0.29 | 96 | 1005.1 |
| 20260506141542 | 54 | 255 | 1.0 | 3.0 | 0.06 | 0.36 | 0.29 | 96 | 1005.2 |
| 20260506140043 | 53 | 218 | 1.0 | 4.0 | 0.07 | 0.35 | 0.28 | 96 | 1005.4 |
| 20260506134549 | 53 | 232 | 1.0 | 3.0 | 0.10 | 0.34 | 0.27 | 96 | 1005.5 |
| 20260506133044 | 52 | 209 | 1.0 | 4.0 | 0.13 | 0.33 | 0.26 | 96 | 1005.7 |
| 20260506131546 | 52 | 265 | 2.0 | 4.0 | 0.12 | 0.30 | 0.23 | 96 | 1005.9 |
| 20260506130048 | 51 | 178 | 1.0 | 3.0 | 0.10 | 0.28 | 0.21 | 96 | 1006.1 |
| 20260506124547 | 51 | 221 | 1.0 | 4.0 | 0.07 | 0.24 | 0.17 | 96 | 1006.1 |
| 20260506123047 | 51 | 221 | 1.0 | 3.0 | 0.05 | 0.20 | 0.13 | 96 | 1005.7 |
| 20260506121545 | 50 | 265 | 0.0 | 2.0 | 0.08 | 0.18 | 0.11 | 95 | 1005.6 |
| 20260506120043 | 50 | 126 | 1.0 | 3.0 | 0.08 | 0.18 | 0.11 | 95 | 1005.6 |
| 20260506114544 | 49 | 193 | 1.0 | 2.0 | 0.08 | 0.17 | 0.10 | 95 | 1005.8 |
| 20260506113044 | 49 | 76 | 0.0 | 2.0 | 0.06 | 0.15 | 0.08 | 95 | 1006.4 |
| 20260506111545 | 49 | 165 | 0.0 | 2.0 | 0.01 | 0.10 | 0.03 | 95 | 1006.5 |
| 20260506110043 | 49 | 119 | 0.0 | 2.0 | 0.02 | 0.10 | 0.03 | 95 | 1006.4 |
| 20260506104550 | 49 | 108 | 0.0 | 2.0 | 0.01 | 0.09 | 0.02 | 95 | 1006.3 |
| 20260506103053 | 48 | 105 | 0.0 | 2.0 | 0.01 | 0.09 | 0.02 | 95 | 1006.3 |
| 20260506101544 | 48 | 46 | 1.0 | 2.0 | 0.01 | 0.08 | 0.01 | 94 | 1006.1 |
| 20260506100041 | 49 | 44 | 1.0 | 2.0 | 0.01 | 0.08 | 0.01 | 94 | 1006.0 |
| 20260506094549 | 49 | 0 | 0.0 | 2.0 | 0.01 | 0.08 | 0.01 | 94 | 1006.0 |
| 20260506093042 | 49 | 316 | 0.0 | 2.0 | 0.01 | 0.08 | 0.01 | 94 | 1005.9 |
| 20260506091554 | 49 | 153 | 1.0 | 2.0 | 0.00 | 0.07 | 0.00 | 93 | 1005.9 |
| 20260506090056 | 49 | 129 | 0.0 | 3.0 | 0.00 | 0.07 | 0.00 | 93 | 1006.2 |
| 20260506084548 | 49 | 105 | 0.0 | 3.0 | 0.00 | 0.07 | 0.00 | 93 | 1006.4 |
| 20260506083048 | 49 | 265 | 2.0 | 4.0 | 0.00 | 0.07 | 0.00 | 92 | 1006.6 |
| 20260506081547 | 49 | 108 | 0.0 | 3.0 | 0.00 | 0.07 | 0.00 | 92 | 1006.6 |
| 20260506073050 | 49 | 64 | 1.0 | 4.0 | 0.00 | 0.07 | 0.00 | 90 | 1006.5 |
| 20260506071549 | 49 | 74 | 2.0 | 4.0 | 0.00 | 0.07 | 0.00 | 90 | 1006.7 |
| 20260506061544 | 50 | 93 | 1.0 | 4.0 | 0.00 | 0.07 | 0.00 | 89 | 1007.3 |
| 20260506044542 | 50 | 61 | 1.0 | 3.0 | 0.00 | 0.07 | 0.00 | 88 | 1008.5 |
| 20260506043039 | 50 | 102 | 2.0 | 3.0 | 0.00 | 0.07 | 0.00 | 88 | 1008.5 |
| 20260506041544 | 50 | 123 | 2.0 | 4.0 | 0.00 | 0.07 | 0.00 | 88 | 1008.3 |
| 20260506040046 | 51 | 105 | 2.0 | 3.0 | 0.00 | 0.07 | 0.00 | 88 | 1008.6 |
| 20260506034557 | 51 | 93 | 2.0 | 4.0 | 0.00 | 0.07 | 0.07 | 87 | 1008.7 |
| 20260506033044 | 51 | 106 | 2.0 | 3.0 | 0.00 | 0.07 | 0.07 | 87 | 1008.9 |
| 20260506031543 | 51 | 80 | 2.0 | 4.0 | 0.00 | 0.07 | 0.07 | 86 | 1008.8 |
| 20260506030046 | 52 | 88 | 1.0 | 4.0 | 0.00 | 0.07 | 0.07 | 85 | 1008.8 |
| 20260506024605 | 52 | 51 | 2.0 | 4.0 | 0.00 | 0.07 | 0.07 | 85 | 1008.8 |
| 20260506023044 | 53 | 17 | 2.0 | 5.0 | 0.00 | 0.07 | 0.07 | 84 | 1008.9 |
| 20260506021552 | 53 | 80 | 3.0 | 5.0 | 0.00 | 0.07 | 0.07 | 84 | 1009.2 |
| 20260506020041 | 54 | 43 | 1.0 | 4.0 | 0.00 | 0.07 | 0.07 | 84 | 1009.0 |
| 20260506014550 | 56 | 51 | 2.0 | 5.0 | 0.00 | 0.07 | 0.07 | 84 | 1008.6 |
| 20260506013101 | 57 | 36 | 1.0 | 3.0 | 0.00 | 0.07 | 0.07 | 88 | 1008.2 |
| 20260506011544 | 58 | 55 | 1.0 | 5.0 | 0.00 | 0.07 | 0.07 | 86 | 1007.9 |
| 20260506010046 | 58 | 57 | 1.0 | 4.0 | 0.00 | 0.07 | 0.07 | 86 | 1007.6 |
| 20260506004541 | 59 | 30 | 1.0 | 4.0 | 0.00 | 0.07 | 0.07 | 87 | 1007.4 |
| 20260506003042 | 59 | 9 | 1.0 | 3.0 | 0.00 | 0.07 | 0.07 | 88 | 1007.3 |
| 20260506001544 | 59 | 16 | 1.0 | 3.0 | 0.00 | 0.07 | 0.07 | 88 | 1007.1 |
| 20260506000050 | 60 | 168 | 1.0 | 2.0 | 0.00 | 0.07 | 0.07 | 88 | 1006.9 |
| 20260505234545 | 60 | 26 | 0.0 | 2.0 | 0.00 | 0.07 | 0.07 | 86 | 1006.6 |
| 20260505233041 | 61 | 178 | 1.0 | 3.0 | 0.01 | 0.07 | 0.07 | 86 | 1006.7 |
| 20260505231543 | 61 | 238 | 1.0 | 2.0 | 0.01 | 0.07 | 0.07 | 86 | 1006.6 |
| 20260505230054 | 61 | 239 | 1.0 | 2.0 | 0.01 | 0.07 | 0.07 | 86 | 1006.5 |
| 20260505224546 | 61 | 178 | 1.0 | 4.0 | 0.01 | 0.07 | 0.07 | 84 | 1006.5 |
| 20260505223056 | 62 | 0 | 0.0 | 3.0 | 0.00 | 0.06 | 0.06 | 83 | 1006.6 |
| 20260505221544 | 63 | 255 | 1.0 | 3.0 | 0.00 | 0.06 | 0.06 | 80 | 1006.4 |
| 20260505220052 | 63 | 51 | 0.0 | 4.0 | 0.00 | 0.06 | 0.06 | 81 | 1005.8 |
| 20260505214542 | 64 | 296 | 1.0 | 3.0 | 0.00 | 0.06 | 0.06 | 80 | 1005.9 |
| 20260505213056 | 63 | 221 | 0.0 | 3.0 | 0.00 | 0.06 | 0.06 | 83 | 1005.7 |
| 20260505211542 | 62 | 227 | 1.0 | 3.0 | 0.00 | 0.06 | 0.06 | 86 | 1005.6 |
| 20260505210043 | 61 | 265 | 1.0 | 3.0 | 0.00 | 0.06 | 0.06 | 87 | 1005.4 |
| 20260505204542 | 59 | 273 | 1.0 | 3.0 | 0.03 | 0.06 | 0.06 | 90 | 1005.6 |
| 20260505203047 | 58 | 270 | 1.0 | 5.0 | 0.04 | 0.06 | 0.06 | 89 | 1006.0 |
| 20260505201542 | 59 | 319 | 2.0 | 5.0 | 0.04 | 0.06 | 0.06 | 90 | 1006.1 |
| 20260505200046 | 58 | 298 | 3.0 | 11.0 | 0.04 | 0.06 | 0.06 | 89 | 1006.7 |
| 20260505194547 | 60 | 304 | 4.0 | 16.0 | 0.01 | 0.03 | 0.03 | 83 | 1007.1 |
| 20260505193041 | 71 | 288 | 3.0 | 7.0 | 0.00 | 0.02 | 0.02 | 51 | 1005.6 |
| 20260505191546 | 72 | 279 | 3.0 | 8.0 | 0.00 | 0.02 | 0.02 | 44 | 1004.4 |
| 20260505190047 | 73 | 240 | 3.0 | 9.0 | 0.00 | 0.02 | 0.02 | 47 | 1004.4 |
| 20260505184548 | 72 | 196 | 4.0 | 10.0 | 0.00 | 0.02 | 0.02 | 51 | 1004.4 |
| 20260505183057 | 73 | 223 | 5.0 | 10.0 | 0.01 | 0.02 | 0.02 | 50 | 1004.6 |
| 20260505181546 | 72 | 284 | 3.0 | 10.0 | 0.02 | 0.02 | 0.02 | 55 | 1005.0 |
| 20260505180049 | 70 | 219 | 3.0 | 8.0 | 0.02 | 0.02 | 0.02 | 57 | 1005.1 |
| 20260505174550 | 66 | 41 | 1.0 | 6.0 | 0.02 | 0.02 | 0.02 | 71 | 1005.4 |
| 20260505173050 | 69 | 309 | 3.0 | 9.0 | 0.01 | 0.01 | 0.01 | 65 | 1005.8 |
| 20260505171548 | 72 | 219 | 3.0 | 9.0 | 0.00 | 0.00 | 0.00 | 46 | 1005.5 |
| 20260505170047 | 73 | 234 | 3.0 | 7.0 | 0.00 | 0.00 | 0.00 | 46 | 1005.5 |
| 20260505164558 | 74 | 212 | 4.0 | 10.0 | 0.00 | 0.00 | 0.00 | 45 | 1005.2 |
| 20260505163053 | 74 | 229 | 3.0 | 8.0 | 0.00 | 0.00 | 0.00 | 45 | 1005.3 |
| 20260505161546 | 73 | 202 | 5.0 | 9.0 | 0.00 | 0.00 | 0.00 | 46 | 1005.6 |